Regional Weather Roundup
Issued by NWS San Diego, CA

Home | Current Version | Previous Version | Text Only | Print | Product List | Glossary On
Versions: 1 2 3 4 5 6 7 8 9 10 11 12 13 14 15 16 17 18 19 20 21 22 23 24 25 26 27 28 29 30 31 32 33 34 35 36 37 38 39 40 41 42 43 44 45 46 47 48 49 50
604
ASUS46 KSGX 200411
RWRSGX

SAN DIEGO HOURLY WEATHER ROUNDUP
NATIONAL WEATHER SERVICE SAN DIEGO CA
800 PM PST SUN FEB 19 2017

NOTE: "FAIR" INDICATES FEW OR NO CLOUDS BELOW 12,000 FEET WITH NO
SIGNIFICANT WEATHER AND/OR OBSTRUCTIONS TO VISIBILITY.

CAZ042-043-060-061-PZZ750-775-200500-

GREATER SAN DIEGO AREA

CITY           SKY/WX    TMP DP  RH WIND       PRES   REMARKS
SAN DIEGO AP   MOCLDY    58  44  60 SW3       30.15R
NATIONAL CITY    N/A     57  48  72 CALM      30.13R
CHULA VISTA      N/A     55  49  82 CALM      30.06R
IMPERIAL BEACH CLOUDY   N/A N/A N/A CALM      30.14R
BROWN FIELD    CLOUDY    52  46  80 CALM      30.13R
MIRAMAR MCAS   CLOUDY    54  48  80 E5        30.12R
MONTGOMERY FLD MOCLDY    54  45  71 CALM      30.13R

$$

NORTH SAN DIEGO COUNTY

CITY           SKY/WX    TMP DP  RH WIND       PRES   REMARKS
CAMP PENDLETON CLOUDY    54  49  83 CALM      30.13R
OCEANSIDE AP   CLOUDY    57  49  74 CALM      30.12R
OCEANSIDE HBR    N/A     56  48  72 W5        30.15R
VISTA            N/A     52  48  84 CALM      30.11R
CARLSBAD       CLOUDY    54  48  80 E3        30.11R
DEL MAR          N/A     55  49  81 CALM      30.15R
LA JOLLA SCRIP   N/A     55  49  79 SE2       30.13R
FALLBROOK        N/A     52  51  95 CALM      30.11R
ESCONDIDO        N/A     53  48  82 CALM      30.15R
SAN MARCOS       N/A     52  46  81 CALM      30.14R
POWAY            N/A     49  46  88 CALM      30.16R

$$

EAST SAN DIEGO COUNTY

CITY           SKY/WX    TMP DP  RH WIND       PRES   REMARKS
RAMONA         CLOUDY    47  46  97 CALM      30.12R
SANTEE LAKES     N/A     50  46  87 CALM      30.13R
LA MESA          N/A     51  46  83 CALM      30.07R
JAMUL            N/A     47  44  88 CALM      30.15R
DESCANSO N       N/A     41  40  97 CALM      30.09R
CAMPO            N/A     43  42  97 CALM      30.06R

$$

ORANGE COUNTY AND THE LOS ANGELES BASIN

CITY           SKY/WX    TMP DP  RH WIND       PRES   REMARKS
JOHN WAYNE AP  LGT RAIN  57  47  69 SE6       30.11R
LAGUNA BEACH     N/A    N/A N/A N/A SE2       30.07R
LAKE FOREST FR   N/A     51  44  75 E1        30.02R
HUNTINGTON BCH   N/A     57  50  78 CALM      30.13R
LOS ALAMITOS   CLOUDY    57  49  74 SE7       30.11R
FULLERTON      CLOUDY    58  47  66 SE6       30.10R
LONG BEACH     LGT RAIN  56  51  84 SE7       30.11R
L.A. AP        CLOUDY    56  50  80 VRB3      30.10R
L.A. DOWNTOWN  LGT RAIN  57  50  77 CALM      30.10R

$$

THE INLAND EMPIRE

CITY           SKY/WX    TMP DP  RH WIND       PRES   REMARKS
CORONA         CLOUDY    55  47  74 CALM      30.11
CHINO          MOCLDY    55  47  74 W8        30.11R
ONTARIO        CLOUDY    53  46  77 W7        30.10R
SAN BERNARDINO RAIN      52  48  87 CALM      30.11R FOG
RIVERSIDE AP   CLOUDY    54  48  80 CALM      30.11R
MORENO VALLEY    N/A     49  49  97 CALM      28.20R
MARCH ARB      CLOUDY    51  48  91 SE7       30.10R
HORSETHIEF CYN   N/A     69  59  70 CALM      30.07R
PERRIS           N/A     50  47  90 S3        30.12R
HEMET EAST       N/A     48  42  81 CALM      30.18R
FRENCH VALLEY  CLOUDY    50  45  81 S6        30.12R
TEMECULA         N/A     52  49  89 SW5       30.18R

$$

SAN BERNARDINO AND RIVERSIDE COUNTY MOUNTAINS

CITY           SKY/WX    TMP DP  RH WIND       PRES   REMARKS
BIG BEAR AP    CLOUDY    34  34 100 CALM      30.08R
PINE COVE        N/A     36  36 100 N3        30.13R

$$

SOUTHERN DESERT INCLUDING THE COACHELLA VALLEY

CITY           SKY/WX    TMP DP  RH WIND       PRES   REMARKS
PALM SPRINGS   PTCLDY    61  49  64 NW13      30.04R
PALM DESERT      N/A     62  49  62 CALM        N/A
THERMAL        MOCLDY    62  49  62 N10       30.01R
BLYTHE         MOCLDY    60  53  77 S7        30.01R
IMPERIAL AP    CLEAR     58  44  60 W8        30.02R
EL CENTRO NAS  CLEAR     58  42  55 W9        30.05R
YUMA AZ        PTCLDY    60  54  80 SE7       30.03
MEXICALI       PTCLDY    63  48  59 S3        30.03R

$$

UPPER DESERT

CITY           SKY/WX    TMP DP  RH WIND       PRES   REMARKS
VICTORVILLE AP CLOUDY    48  43  81 S14       30.02R
HESPERIA         N/A     47  43  84 SW12      30.18R
PALMDALE       CLOUDY    50  46  86 SW17      30.02R
LANCASTER      CLOUDY    49  45  86 SW17      30.02R
EDWARDS AFB    CLOUDY    50  47  90 SW10      30.00R
DAGGETT        MOCLDY    55  44  66 W10       29.99R
29 PALMS N     PTCLDY    55  45  68 SW9       30.07R
NEEDLES        PTCLDY    59  52  77 W3        30.01R

$$

REGIONAL REPORTS

CITY           SKY/WX    TMP DP  RH WIND       PRES   REMARKS
SANTA BARBARA  LGT RAIN  52  51  97 E6        30.08R FOG
SANDBERG       FOG       43  42  97 S14       30.05R VSB<1/4
LAS VEGAS NV   PTCLDY    56  40  55 S6        29.95R
PHOENIX AZ     MOCLDY    56  52  86 SE5       30.04R
TIJUANA        MOCLDY    52  45  76 CALM      30.16R
ENSENADA NW      N/A     56  32  40 NW3       30.11R

$$

OFFSHORE ISLANDS

CITY           SKY/WX    TMP DP  RH WIND       PRES   REMARKS
CATALINA ARPT  CLOUDY    50  48  93 W5        30.10R
SAN NICOLAS IS CLOUDY   N/A N/A N/A S6        30.10R HAZE

$$

MARINE AND OFFSHORE BUOY REPORTS

STATION/POSITION SKY/WX   TEMP    WIND        PRES    VSBY  SWELL
                          AIR SEA DIR/SP/G                  HT/PER/DIR
                          (F)     (DEG/KT/KT) (MB)    (MI)  (FT/S/D)
TANNER BANKS               58 59  190/  6/  8 1019.1R         8/280/12
S CLEMENTE BASIN           58 59  280/  8/ 10 1019.9R         8/300/13
SAN NICOLAS IS.               56                N/A           5/280/13
SO. S. ROSA ISLA           54 56  120/ 14/ 17 1017.7R         7/280/12
W. S. BARBARA CH           52 56  120/ 17/ 21 1017.3R         7/270/11
M. S. BARBARA CH                  100/  8/ 10 1019.1
S. MONICA BASIN            56 59  310/  8/ 10 1019.1
S PEDRO CHANNEL               60                N/A           3/270/13
CMP PENDLETON NS              59                N/A           3/240/13
OCEANSIDE OFFSHR              59                N/A           3/240/13
TORREY PINES OTR              60                N/A           3/260/13
POINT LOMA SOUTH              60                N/A           5/250/13

$$





USA.gov is the U.S. government's official web portal to all federal, state and local government web resources and services.